THOR ABLESTAR DEB, 232

Orbit data source: Space-Track

THOR ABLESTAR DEB, 232 is space debris in LEO originally from a launch on Thu, 29 Jun 1961 UTC launched from the Air Force Eastern Test Range (AFETR). Debris objects in space refer to the collection of defunct objects orbiting the Earth. Examples of debris include non-operational satellites, rocket bodies, and fragments generated from explosions, collisions, or faulty payload assembly.

Loading next visibility...
Identifier
232, 1961-015BQ
Orbit
LEO
Country
Flag of USUS
Related business
Manufacturer
Unknown
Mission
Spacecraft
Bus & Motor
Unknown
Mass
Unknown
Launch date (UTC)
1961-06-29 (65 years ago)
Launch vehicle
Unknown
Launch site
Air Force Eastern Test Range (AFETR)
Object type
Payload
Rocket body
Debris
Shape & HBR
Unknown shape, 0.2 m
Radar Cross Section
Medium (>0.1 m² and <1 m²)

Expand to show TLE details & history
Last TLE update: 2 days ago

TLE from 2 days ago
0 THOR ABLESTAR DEB
1 00232U 61015BQ  26235.44495030  .00000118  00000-0  12980-3 0  9990
2 00232  66.8203  46.6589 0051489  53.5953 306.9864 14.00824042316415
Epoch: 2026-08-23T10:40Z
TLE epoch observation values (Epoch: 2026-08-23T10:40:43.705Z)
Latitude
Longitude
-85.26411°
Altitude
870.634 km
Speed
7.429 km/s
True Right ascension
03h 06m 38s
True Declination
0° 00' 00"
Sunlit
Object was in daylight at epoch
Visualization orbit readout
Latitude
Unknown
Longitude
Unknown
Altitude
Unknown
Speed
Unknown
Apparent Right ascension
Unknown
Apparent Declination
Unknown
Sunlit
N/A
Visualization observer readout
Local Sidereal Time
15:18:28
Azimuth
Unknown
Elevation
Unknown
Doppler factor
Unknown
Orbital elements
Apogee altitude
926.746 km
Perigee altitude
851.907 km
Semi-major axis
7,267.463 km
Eccentricity
0.00515
Inclination
66.8203°
RAAN
46.6589°
Arg. of periapsis
53.5953°
True anomaly
306.51328°
Mean anomaly
306.9864°
Eccentric anomaly
306.75002°
Mean motion
3.50323 °/min
Orbital period
102.76 mins
BSTAR
0.0001298
Loading maneuver chart data...
Computing Atmospheric mass density...

Documentation

Showing up to 5 results
|